017  
ASUS43 KMPX 300710  
RWRMN  
WEATHER ROUNDUP FOR MINNESOTA  
NATIONAL WEATHER SERVICE TWIN CITIES/CHANHASSEN MN  
200 AM CDT SAT JUL 30 2016  
 
NOTE: "FAIR" INDICATES FEW OR NO CLOUDS BELOW 12,000 FEET WITH NO  
SIGNIFICANT WEATHER AND/OR S TO VISIBILITY
. N/A MEANS  
CURRENT SKY AND/OR WEATHER CONDITIONS ARE NOT AVAILABLE.  
 
MNZ060>063-068>070-300800-  
TWIN CITIES METRO  
 
CITY SKY/WX TMP DP RH WIND PRES REMARKS
 
TWIN CITIES CLOUDY 71 57 61 NE5 30.03S  
ST PAUL CLOUDY 70 58 65 CALM 30.03S  
CRYSTAL CLOUDY 65 57 75 CALM 30.02F  
BLAINE PTCLDY 66 59 77 CALM 30.03F  
LAKEVILLE CLOUDY 63 63 100 CALM 30.02F  
EDEN PRAIRIE PTCLDY 63 57 81 CALM 30.02S  
LAKEVILLE CLOUDY 63 63 100 CALM 30.02F  
SOUTH ST PAUL CLOUDY 70 57 62 CALM 30.02F  
LAKE ELMO FAIR 63 59 88 CALM 30.04S  

 
MNZ001>005-007-008-013>017-022>024-027-028-300800-  
NORTHWEST MINNESOTA  
 
CITY SKY/WX TMP DP RH WIND PRES REMARKS
 
BEMIDJI PTCLDY 63 60 92 S5 30.03F  
HALLOCK CLEAR 59 55 88 SE7 29.97F  
ROSEAU CLEAR 59 54 82 S3 29.99F  
WARROAD CLEAR 63 59 88 S2 30.00F  
THIEF RVR FALL CLEAR 56 55 97 SE3 30.01F  
CROOKSTON PTCLDY 61 55 82 SE7 29.99F  
FOSSTON MOCLDY 54 46 76 CALM 30.02F  
DETROIT LAKES PTCLDY 64 63 94 S5 30.04S  
MOORHEAD CLOUDY 68 63 83 SE6 30.01S  
PARK RAPIDS PTCLDY 63 59 87 S6 30.04F  
MAHNOMEN FAIR 63 60 91 SE5 30.02S  

 
MNZ006-009>011-018-025>026-300800-  
NORTH CENTRAL MINNESOTA  
 
CITY SKY/WX TMP DP RH WIND PRES REMARKS
 
BAUDETTE CLEAR 60 54 80 S3 30.01S  
FLAG ISLAND CLEAR 72 64 78 CALM 29.98S  
INTL FALLS PTCLDY 61 53 75 VRB3 30.03F  
WASKISH CLEAR 59 57 94 SE5 30.02F  
BIG FORK CLEAR 57 54 88 CALM 30.06F  
LONGVILLE CLEAR 57 54 88 CALM 30.05F  
GRAND RAPIDS CLEAR 54 53 97 CALM 30.08F  
CRANE LAKE CLEAR 52 50 93 S2 30.08F  
ORR PTCLDY 55 50 82 CALM 30.05F  
COOK CLEAR 54 52 94 CALM 30.07F  
WALKER FAIR 63 56 79 CALM 30.04F  

 
MNZ012-019>021-037-300800-  
NORTHEAST MINNESOTA  
 
CITY SKY/WX TMP DP RH WIND PRES REMARKS
 
DULUTH PTCLDY 50 49 96 CALM 30.07F  
ELY CLEAR 50 46 87 CALM 30.08F  
HIBBING CLOUDY 48 48 100 CALM 30.07F  
EVELETH CLOUDY 50 49 97 CALM 30.09F  
DULUTH HARBOR CLEAR 63 61 94 NE8 30.07R  
TWO HARBORS CLEAR 54 48 82 CALM 30.05F  
SILVER BAY CLEAR 48 48 100 CALM 30.06F  
GRAND MARAIS N/A 57 50 77 NW6 30.06F  
G MARAIS ARPRT CLEAR 46 43 87 CALM 30.11S  

 
MNZ029>031-032-039>041-046>048-054>057-064-300800-  
WEST CENTRAL MINNESOTA  
 
CITY SKY/WX TMP DP RH WIND PRES REMARKS
 
FERGUS FALLS CLOUDY 66 63 88 S5 30.04S  
WHEATON CLOUDY 68 63 83 S7 30.03F  
MORRIS CLEAR 61 57 88 S5 30.03S  
ALEXANDRIA CLEAR 63 58 83 SE6 30.06F  
ELBOW LAKE FAIR 63 60 90 E6 30.04S  
GLENWOOD N/A 63 59 88 SE3 30.06S  
APPLETON CLEAR 63 57 82 CALM 30.03S  
BENSON CLEAR 63 55 77 CALM 30.04S  
ORTONVILLE CLEAR 64 55 72 S3 30.03S  
MADISON CLEAR 61 57 88 SW3 30.03F  
WILLMAR FAIR 63 59 88 CALM 30.06F  

 
MNZ033>034-036-042>043-049>051-058-059-300800-  
CENTRAL MINNESOTA  
 
CITY SKY/WX TMP DP RH WIND PRES REMARKS
 
ST CLOUD PTCLDY 57 56 96 CALM 30.04F  
SAUK CENTRE FAIR 60 58 96 CALM 30.06S  
PAYNESVILLE CLEAR 60 60 100 CALM 30.06S  
AITKIN PTCLDY 55 50 82 CALM 30.05F  
PINE RIVER MOCLDY 61 57 88 CALM 30.08F  
BRAINERD MOCLDY 62 55 77 SE3 30.05F  
STAPLES PTCLDY 61 54 77 CALM 30.05S  
LONG PRAIRIE FAIR 59 57 94 CALM 30.06S  
LITTLE FALLS PTCLDY 57 54 88 CALM 30.06S  
LITCHFIELD CLEAR 61 61 100 CALM 30.05F  
BUFFALO PTCLDY 59 54 84 CALM 30.05S  
MAPLE LAKE CLEAR 57 56 97 CALM 30.05F  
HUTCHINSON CLEAR 56 55 99 CALM 30.05F  

 
MNZ037-044-045-052-053-300800-  
EAST CENTRAL MINNESOTA  
 
CITY SKY/WX TMP DP RH WIND PRES REMARKS
 
PRINCETON CLEAR 57 55 94 CALM 30.05S  
MORA CLEAR 55 54 94 CALM 30.07S  
CAMBRIDGE PTCLDY 59 52 77 CALM 30.03S  
RUSH CITY CLOUDY 58 56 94 CALM 30.05F  
MOOSE LAKE CLOUDY 54 52 94 CALM 30.05F  
HINCKLEY FAIR 54 54 100 N3 30.06F  
CLOQUET CLOUDY 50 46 87 CALM 30.07S  
MCGREGOR CLOUDY 54 52 94 CALM 30.07S  

 
MNZ071>073-080-081-089-090-097-098-300800-  
SOUTHWEST MINNESOTA  
 
CITY SKY/WX TMP DP RH WIND PRES REMARKS
 
MONTEVIDEO CLOUDY 64 59 82 CALM 30.06S  
GRANITE FALLS CLEAR 59 57 93 S3 30.06S  
CANBY CLEAR 59 56 89 CALM 30.05F  
MARSHALL CLEAR 59 55 87 SW6 30.05F  
REDWOOD FALLS CLEAR 60 56 86 CALM 30.04S  
OLIVIA CLEAR 57 54 88 CALM 30.04S  
PIPESTONE PTCLDY 61 54 77 N2 30.06F  
WINDOM CLEAR 54 52 94 CALM 30.05S  
WORTHINGTON PTCLDY 56 53 90 NW3 30.06F  
JACKSON CLEAR 54 52 94 CALM 30.05F  
TRACY CLEAR 62 56 83 SW6 30.05F  
SLAYTON CLOUDY 54 52 92 CALM 30.06F  

 
MNZ065>067-074>077-082>085-091>093-300800-  
SOUTH CENTRAL MINNESOTA  
 
CITY SKY/WX TMP DP RH WIND PRES REMARKS
 
MANKATO CLEAR 61 52 72 N6 30.03F  
NEW ULM CLEAR 57 52 82 CALM 30.03F  
ST JAMES CLEAR 52 50 93 CALM 30.04F  
FAIRMONT CLEAR 59 54 82 NW3 30.02F  
GLENCOE CLEAR 58 57 96 CALM 30.03F  
FARIBAULT CLOUDY 63 61 94 CALM 30.03F  
OWATONNA PTCLDY 63 59 88 CALM 30.03S  
WASECA PTCLDY 55 54 94 N3 30.04F  
ALBERT LEA CLOUDY 63 61 94 CALM 30.03F  

 
MNZ078>079-086>088-094>096-300800-  
SOUTHEAST MINNESOTA  
 
CITY SKY/WX TMP DP RH WIND PRES REMARKS
 
ROCHESTER PTCLDY 63 61 93 NE5 30.04S  
RED WING PTCLDY 61 59 94 CALM 30.02S  
STANTON CLOUDY 64 61 88 CALM 30.02S  
DODGE CENTER CLOUDY 63 57 82 NE3 30.04S  
WINONA CLOUDY 68 66 94 CALM 30.02S  
AUSTIN CLOUDY 64 59 82 CALM 30.03S  
PRESTON CLEAR 63 61 94 CALM 30.04S FOG  

 
ABBREVIATIONS USED IN REMARKS  
TC - TEMPERATURES IN CELSIUS  
WCI - WIND CHILL INDEX  
HX - HEAT INDEX  
VSB - VISIBILITY  

 
 
 
CLICK HERE TO GO TO PREVIOUS BULLETINS.

The Nexlab MN Page Main Text Page